contact:dominique.lefevre@mio.osupytheas.fr, maurice.libes@osupytheas.fr, didier.mallarino@osupytheas.fr
Project:EMSO http://www.emso-fr.org/EMSO-France
Depth: 2436.0 m
Title:EMSO Ligure Ouest : Data MII capteur MICROCAT
DateTime_Computer,Latitude,Longitude,Temperature,Conductivity,Pressure,DateTime_Instrument
DateTime_Computer,Latitude,Longitude,degC,S m-1,dbar,DateTime_Instrument
2021-04-04T00:02:18Z,42.805,6.029,13.2979,4.60008,2470.297,2021-4-04T02:03:26Z
2021-04-04T00:05:22Z,42.805,6.029,13.2983,4.60011,2470.357,2021-4-04T02:06:29Z
2021-04-04T00:08:25Z,42.805,6.029,13.2982,4.59996,2470.334,2021-4-04T02:09:32Z
2021-04-04T00:11:28Z,42.805,6.029,13.2982,4.60031,2470.334,2021-4-04T02:12:35Z
2021-04-04T00:14:31Z,42.805,6.029,13.2980,4.60010,2470.366,2021-4-04T02:15:39Z
2021-04-04T00:17:34Z,42.805,6.029,13.2982,4.60033,2470.334,2021-4-04T02:18:42Z
2021-04-04T00:20:37Z,42.805,6.029,13.2988,4.60020,2470.297,2021-4-04T02:21:45Z
2021-04-04T00:23:40Z,42.805,6.029,13.2991,4.60039,2470.334,2021-4-04T02:24:48Z
2021-04-04T00:26:43Z,42.805,6.029,13.3015,4.60062,2470.334,2021-4-04T02:27:51Z
2021-04-04T00:29:46Z,42.805,6.029,13.3011,4.60003,2470.31,2021-4-04T02:30:54Z
2021-04-04T00:32:50Z,42.805,6.029,13.3014,4.60023,2470.32,2021-4-04T02:33:57Z
2021-04-04T00:35:53Z,42.805,6.029,13.3019,4.60079,2470.334,2021-4-04T02:37:00Z
2021-04-04T00:38:56Z,42.805,6.029,13.3015,4.60061,2470.334,2021-4-04T02:40:04Z
2021-04-04T00:41:59Z,42.805,6.029,13.3023,4.60074,2470.334,2021-4-04T02:43:07Z
2021-04-04T00:45:02Z,42.805,6.029,13.3021,4.60038,2470.334,2021-4-04T02:46:10Z
2021-04-04T00:48:05Z,42.805,6.029,13.3020,4.60054,2470.32,2021-4-04T02:49:13Z
2021-04-04T00:51:08Z,42.805,6.029,13.3021,4.60043,2470.31,2021-4-04T02:52:16Z
2021-04-04T00:54:11Z,42.805,6.029,13.3005,4.60088,2470.343,2021-4-04T02:55:19Z
2021-04-04T00:57:15Z,42.805,6.029,13.3022,4.60042,2470.334,2021-4-04T02:58:22Z
2021-04-04T01:00:18Z,42.805,6.029,13.3026,4.60049,2470.334,2021-4-04T03:01:25Z
2021-04-04T01:03:21Z,42.805,6.029,13.3024,4.60042,2470.343,2021-4-04T03:04:28Z
2021-04-04T01:06:24Z,42.805,6.029,13.3011,4.60056,2470.297,2021-4-04T03:07:32Z
2021-04-04T01:09:27Z,42.805,6.029,13.3029,4.60064,2470.32,2021-4-04T03:10:35Z
2021-04-04T01:12:30Z,42.805,6.029,13.3017,4.60062,2470.297,2021-4-04T03:13:38Z
2021-04-04T01:15:33Z,42.805,6.029,13.3014,4.60064,2470.31,2021-4-04T03:16:41Z
2021-04-04T01:18:36Z,42.805,6.029,13.3009,4.60093,2470.297,2021-4-04T03:19:44Z
2021-04-04T01:21:39Z,42.805,6.029,13.3009,4.60124,2470.31,2021-4-04T03:22:47Z
2021-04-04T01:24:43Z,42.805,6.029,13.3010,4.60119,2470.273,2021-4-04T03:25:50Z
2021-04-04T01:27:46Z,42.805,6.029,13.3014,4.60110,2470.297,2021-4-04T03:28:53Z
2021-04-04T01:30:49Z,42.805,6.029,13.3023,4.60047,2470.32,2021-4-04T03:31:57Z
2021-04-04T01:33:52Z,42.805,6.029,13.3030,4.60033,2470.334,2021-4-04T03:35:00Z
2021-04-04T01:36:55Z,42.805,6.029,13.3024,4.60029,2470.297,2021-4-04T03:38:03Z
2021-04-04T01:39:58Z,42.805,6.029,13.3013,4.60063,2470.287,2021-4-04T03:41:06Z
2021-04-04T01:43:01Z,42.805,6.029,13.3011,4.60042,2470.264,2021-4-04T03:44:09Z
2021-04-04T01:46:04Z,42.805,6.029,13.3023,4.60064,2470.297,2021-4-04T03:47:12Z
2021-04-04T01:49:08Z,42.805,6.029,13.3010,4.60099,2470.273,2021-4-04T03:50:15Z
2021-04-04T01:52:11Z,42.805,6.029,13.3007,4.60084,2470.297,2021-4-04T03:53:18Z
2021-04-04T01:55:14Z,42.805,6.029,13.3073,4.60057,2470.273,2021-4-04T03:56:21Z
2021-04-04T01:58:17Z,42.805,6.029,13.3009,4.60026,2470.287,2021-4-04T03:59:25Z
2021-04-04T02:01:20Z,42.805,6.029,13.3031,4.60037,2470.287,2021-4-04T04:02:28Z
2021-04-04T02:04:23Z,42.805,6.029,13.3042,4.60067,2470.31,2021-4-04T04:05:31Z
2021-04-04T02:07:26Z,42.805,6.029,13.3007,4.60075,2470.31,2021-4-04T04:08:34Z
2021-04-04T02:10:29Z,42.805,6.029,13.3019,4.60090,2470.31,2021-4-04T04:11:37Z
2021-04-04T02:13:33Z,42.805,6.029,13.3014,4.60096,2470.273,2021-4-04T04:14:40Z
2021-04-04T02:16:36Z,42.805,6.029,13.3021,4.60087,2470.31,2021-4-04T04:17:43Z
2021-04-04T02:19:39Z,42.805,6.029,13.3005,4.60069,2470.32,2021-4-04T04:20:46Z
2021-04-04T02:22:42Z,42.805,6.029,13.3004,4.60085,2470.31,2021-4-04T04:23:50Z
2021-04-04T02:25:45Z,42.805,6.029,13.3003,4.60078,2470.31,2021-4-04T04:26:53Z
2021-04-04T02:28:48Z,42.805,6.029,13.3012,4.60112,2470.273,2021-4-04T04:29:56Z
2021-04-04T02:31:51Z,42.805,6.029,13.3023,4.60070,2470.297,2021-4-04T04:32:59Z
2021-04-04T02:34:54Z,42.805,6.029,13.3024,4.60054,2470.297,2021-4-04T04:36:02Z
2021-04-04T02:37:57Z,42.805,6.029,13.3039,4.60051,2470.297,2021-4-04T04:39:05Z
2021-04-04T02:41:01Z,42.805,6.029,13.3031,4.60047,2470.273,2021-4-04T04:42:08Z
2021-04-04T02:44:04Z,42.805,6.029,13.3037,4.60061,2470.273,2021-4-04T04:45:11Z
2021-04-04T02:47:07Z,42.805,6.029,13.3051,4.60060,2470.297,2021-4-04T04:48:14Z
2021-04-04T02:50:10Z,42.805,6.029,13.3057,4.60050,2470.25,2021-4-04T04:51:18Z
2021-04-04T02:53:13Z,42.805,6.029,13.3071,4.60046,2470.287,2021-4-04T04:54:21Z
2021-04-04T02:56:16Z,42.805,6.029,13.3058,4.60067,2470.297,2021-4-04T04:57:24Z
2021-04-04T02:59:19Z,42.805,6.029,13.3052,4.60054,2470.273,2021-4-04T05:00:27Z
2021-04-04T03:02:22Z,42.805,6.029,13.3041,4.60064,2470.273,2021-4-04T05:03:30Z
2021-04-04T03:05:26Z,42.805,6.029,13.3024,4.60052,2470.287,2021-4-04T05:06:33Z
2021-04-04T03:08:29Z,42.805,6.029,13.3037,4.60063,2470.273,2021-4-04T05:09:36Z
2021-04-04T03:11:32Z,42.805,6.029,13.3053,4.60044,2470.273,2021-4-04T05:12:39Z
2021-04-04T03:14:35Z,42.805,6.029,13.3055,4.60039,2470.273,2021-4-04T05:15:43Z
2021-04-04T03:17:38Z,42.805,6.029,13.3051,4.60064,2470.264,2021-4-04T05:18:46Z
2021-04-04T03:20:41Z,42.805,6.029,13.3052,4.60057,2470.273,2021-4-04T05:21:49Z
2021-04-04T03:23:44Z,42.805,6.029,13.3032,4.60046,2470.297,2021-4-04T05:24:52Z
2021-04-04T03:26:47Z,42.805,6.029,13.3051,4.60094,2470.287,2021-4-04T05:27:55Z
2021-04-04T03:29:50Z,42.805,6.029,13.3053,4.60061,2470.264,2021-4-04T05:30:58Z
2021-04-04T03:32:54Z,42.805,6.029,13.3063,4.60052,2470.236,2021-4-04T05:34:01Z
2021-04-04T03:35:57Z,42.805,6.029,13.3071,4.60097,2470.264,2021-4-04T05:37:04Z
2021-04-04T03:39:00Z,42.805,6.029,13.3073,4.60065,2470.287,2021-4-04T05:40:07Z
2021-04-04T03:42:03Z,42.805,6.029,13.3078,4.60063,2470.273,2021-4-04T05:43:11Z
2021-04-04T03:45:06Z,42.805,6.029,13.3073,4.60053,2470.287,2021-4-04T05:46:14Z
2021-04-04T03:48:09Z,42.805,6.029,13.3081,4.60044,2470.264,2021-4-04T05:49:17Z
2021-04-04T03:51:12Z,42.805,6.029,13.3060,4.60047,2470.273,2021-4-04T05:52:20Z
2021-04-04T03:54:15Z,42.805,6.029,13.3065,4.60023,2470.264,2021-4-04T05:55:23Z
2021-04-04T03:57:19Z,42.805,6.029,13.3061,4.60041,2470.25,2021-4-04T05:58:26Z
2021-04-04T04:00:22Z,42.805,6.029,13.3036,4.60009,2470.287,2021-4-04T06:01:29Z
2021-04-04T04:03:25Z,42.805,6.029,13.3024,4.60033,2470.264,2021-4-04T06:04:32Z
2021-04-04T04:06:28Z,42.805,6.029,13.3028,4.60053,2470.264,2021-4-04T06:07:36Z
2021-04-04T04:09:31Z,42.805,6.029,13.3018,4.60039,2470.264,2021-4-04T06:10:39Z
2021-04-04T04:12:34Z,42.805,6.029,13.3009,4.60037,2470.273,2021-4-04T06:13:42Z
2021-04-04T04:15:37Z,42.805,6.029,13.3041,4.60042,2470.264,2021-4-04T06:16:45Z
2021-04-04T04:18:40Z,42.805,6.029,13.3059,4.60038,2470.217,2021-4-04T06:19:48Z
2021-04-04T04:21:43Z,42.805,6.029,13.3084,4.60019,2470.264,2021-4-04T06:22:51Z
2021-04-04T04:24:47Z,42.805,6.029,13.3060,4.60033,2470.264,2021-4-04T06:25:54Z
2021-04-04T04:27:50Z,42.805,6.029,13.3043,4.60033,2470.264,2021-4-04T06:28:57Z
2021-04-04T04:30:53Z,42.805,6.029,13.3011,4.60020,2470.25,2021-4-04T06:32:00Z
2021-04-04T04:33:56Z,42.805,6.029,13.3019,4.60044,2470.24,2021-4-04T06:35:04Z
2021-04-04T04:36:59Z,42.805,6.029,13.3025,4.60026,2470.25,2021-4-04T06:38:07Z
2021-04-04T04:40:02Z,42.805,6.029,13.2994,4.60024,2470.273,2021-4-04T06:41:10Z
2021-04-04T04:43:05Z,42.805,6.029,13.3002,4.60027,2470.273,2021-4-04T06:44:13Z
2021-04-04T04:46:08Z,42.805,6.029,13.3029,4.60039,2470.24,2021-4-04T06:47:16Z
2021-04-04T04:49:12Z,42.805,6.029,13.3019,4.60062,2470.287,2021-4-04T06:50:19Z
2021-04-04T04:52:15Z,42.805,6.029,13.3016,4.60039,2470.227,2021-4-04T06:53:22Z
2021-04-04T04:55:18Z,42.805,6.029,13.3024,4.60024,2470.25,2021-4-04T06:56:25Z
2021-04-04T04:58:21Z,42.805,6.029,13.3042,4.60039,2470.25,2021-4-04T06:59:29Z
2021-04-04T05:01:24Z,42.805,6.029,13.3038,4.60059,2470.264,2021-4-04T07:02:32Z
2021-04-04T05:04:27Z,42.805,6.029,13.3029,4.60026,2470.24,2021-4-04T07:05:35Z
2021-04-04T05:07:30Z,42.805,6.029,13.3028,4.60030,2470.264,2021-4-04T07:08:38Z
2021-04-04T05:10:33Z,42.805,6.029,13.3036,4.60025,2470.227,2021-4-04T07:11:41Z
2021-04-04T05:13:36Z,42.805,6.029,13.3044,4.60062,2470.287,2021-4-04T07:14:44Z
2021-04-04T05:16:40Z,42.805,6.029,13.3019,4.60049,2470.217,2021-4-04T07:17:47Z
2021-04-04T05:19:43Z,42.805,6.029,13.3027,4.60046,2470.24,2021-4-04T07:20:50Z
2021-04-04T05:22:46Z,42.805,6.029,13.3057,4.60067,2470.24,2021-4-04T07:23:53Z
2021-04-04T05:25:49Z,42.805,6.029,13.3076,4.60046,2470.264,2021-4-04T07:26:57Z
2021-04-04T05:28:52Z,42.805,6.029,13.3073,4.60017,2470.24,2021-4-04T07:30:00Z
2021-04-04T05:31:55Z,42.805,6.029,13.3067,4.60043,2470.203,2021-4-04T07:33:03Z
2021-04-04T05:34:58Z,42.805,6.029,13.3031,4.60057,2470.217,2021-4-04T07:36:06Z
2021-04-04T05:38:01Z,42.805,6.029,13.3050,4.60060,2470.25,2021-4-04T07:39:09Z
2021-04-04T05:41:04Z,42.805,6.029,13.3051,4.60021,2470.203,2021-4-04T07:42:12Z
2021-04-04T05:44:08Z,42.805,6.029,13.3046,4.60042,2470.264,2021-4-04T07:45:15Z
2021-04-04T05:47:11Z,42.805,6.029,13.3039,4.60071,2470.227,2021-4-04T07:48:18Z
2021-04-04T05:50:14Z,42.805,6.029,13.3054,4.60040,2470.217,2021-4-04T07:51:22Z
2021-04-04T05:53:17Z,42.805,6.029,13.3067,4.60026,2470.24,2021-4-04T07:54:25Z
2021-04-04T05:56:20Z,42.805,6.029,13.3056,4.60024,2470.203,2021-4-04T07:57:28Z
2021-04-04T05:59:23Z,42.805,6.029,13.3063,4.60021,2470.227,2021-4-04T08:00:31Z
2021-04-04T06:02:26Z,42.805,6.029,13.3051,4.60026,2470.25,2021-4-04T08:03:34Z
2021-04-04T06:05:29Z,42.805,6.029,13.3041,4.60024,2470.217,2021-4-04T08:06:37Z
2021-04-04T06:08:33Z,42.805,6.029,13.3053,4.60023,2470.217,2021-4-04T08:09:40Z
2021-04-04T06:11:36Z,42.805,6.029,13.3043,4.60031,2470.203,2021-4-04T08:12:43Z
2021-04-04T06:14:39Z,42.805,6.029,13.3048,4.60022,2470.217,2021-4-04T08:15:46Z
2021-04-04T06:17:42Z,42.805,6.029,13.3046,4.60030,2470.217,2021-4-04T08:18:50Z
2021-04-04T06:20:45Z,42.805,6.029,13.3051,4.60037,2470.156,2021-4-04T08:21:53Z
2021-04-04T06:23:48Z,42.805,6.029,13.3059,4.60016,2470.203,2021-4-04T08:24:56Z
2021-04-04T06:26:51Z,42.805,6.029,13.3066,4.60023,2470.203,2021-4-04T08:27:59Z
2021-04-04T06:29:54Z,42.805,6.029,13.3057,4.60057,2470.203,2021-4-04T08:31:02Z
2021-04-04T06:32:58Z,42.805,6.029,13.3051,4.60033,2470.18,2021-4-04T08:34:05Z
2021-04-04T06:36:01Z,42.805,6.029,13.3056,4.60039,2470.217,2021-4-04T08:37:08Z
2021-04-04T06:39:04Z,42.805,6.029,13.3039,4.60028,2470.217,2021-4-04T08:40:11Z
2021-04-04T06:42:07Z,42.805,6.029,13.3046,4.60023,2470.217,2021-4-04T08:43:15Z
2021-04-04T06:45:10Z,42.805,6.029,13.3034,4.60023,2470.203,2021-4-04T08:46:18Z
2021-04-04T06:48:13Z,42.805,6.029,13.3039,4.60029,2470.203,2021-4-04T08:49:21Z
2021-04-04T06:51:16Z,42.805,6.029,13.3048,4.60035,2470.203,2021-4-04T08:52:24Z
2021-04-04T06:54:19Z,42.805,6.029,13.3060,4.60017,2470.18,2021-4-04T08:55:27Z
2021-04-04T06:57:22Z,42.805,6.029,13.3051,4.60029,2470.18,2021-4-04T08:58:30Z
2021-04-04T07:00:26Z,42.805,6.029,13.3056,4.60016,2470.203,2021-4-04T09:01:33Z
2021-04-04T07:03:29Z,42.805,6.029,13.3048,4.60032,2470.203,2021-4-04T09:04:36Z
2021-04-04T07:06:32Z,42.805,6.029,13.3046,4.60036,2470.18,2021-4-04T09:07:40Z
2021-04-04T07:09:35Z,42.805,6.029,13.3046,4.60031,2470.203,2021-4-04T09:10:43Z
2021-04-04T07:12:38Z,42.805,6.029,13.3040,4.60028,2470.18,2021-4-04T09:13:46Z
2021-04-04T07:15:41Z,42.805,6.029,13.3057,4.60021,2470.194,2021-4-04T09:16:49Z
2021-04-04T07:18:44Z,42.805,6.029,13.3046,4.60032,2470.217,2021-4-04T09:19:52Z
2021-04-04T07:21:47Z,42.805,6.029,13.3045,4.60024,2470.217,2021-4-04T09:22:55Z
2021-04-04T07:24:51Z,42.805,6.029,13.3036,4.60029,2470.194,2021-4-04T09:25:58Z
2021-04-04T07:27:54Z,42.805,6.029,13.3051,4.60017,2470.203,2021-4-04T09:29:01Z
2021-04-04T07:30:57Z,42.805,6.029,13.3048,4.60024,2470.194,2021-4-04T09:32:04Z
2021-04-04T07:34:00Z,42.805,6.029,13.3042,4.60059,2470.194,2021-4-04T09:35:08Z
2021-04-04T07:37:03Z,42.805,6.029,13.2984,4.60127,2470.203,2021-4-04T09:38:11Z
2021-04-04T07:40:06Z,42.805,6.029,13.2983,4.60029,2470.171,2021-4-04T09:41:14Z
2021-04-04T07:43:09Z,42.805,6.029,13.2982,4.60016,2470.217,2021-4-04T09:44:17Z
2021-04-04T07:46:12Z,42.805,6.029,13.2985,4.60022,2470.203,2021-4-04T09:47:20Z
2021-04-04T07:49:15Z,42.805,6.029,13.2981,4.60006,2470.203,2021-4-04T09:50:23Z
2021-04-04T07:52:19Z,42.805,6.029,13.2983,4.59998,2470.194,2021-4-04T09:53:26Z
2021-04-04T07:55:22Z,42.805,6.029,13.2982,4.59998,2470.203,2021-4-04T09:56:29Z
2021-04-04T07:58:25Z,42.805,6.029,13.2981,4.59996,2470.203,2021-4-04T09:59:33Z
2021-04-04T08:01:28Z,42.805,6.029,13.2982,4.60001,2470.227,2021-4-04T10:02:36Z
2021-04-04T08:04:31Z,42.805,6.029,13.2982,4.60002,2470.18,2021-4-04T10:05:39Z
2021-04-04T08:07:34Z,42.805,6.029,13.2980,4.59999,2470.18,2021-4-04T10:08:42Z
2021-04-04T08:10:37Z,42.805,6.029,13.2978,4.60001,2470.227,2021-4-04T10:11:45Z
2021-04-04T08:13:40Z,42.805,6.029,13.2980,4.59999,2470.18,2021-4-04T10:14:48Z
2021-04-04T08:16:44Z,42.805,6.029,13.2980,4.59997,2470.203,2021-4-04T10:17:51Z
2021-04-04T08:19:47Z,42.805,6.029,13.2982,4.59994,2470.203,2021-4-04T10:20:54Z
2021-04-04T08:22:50Z,42.805,6.029,13.2982,4.59999,2470.166,2021-4-04T10:23:58Z
2021-04-04T08:25:53Z,42.805,6.029,13.2983,4.60009,2470.217,2021-4-04T10:27:01Z
2021-04-04T08:28:56Z,42.805,6.029,13.2983,4.59999,2470.203,2021-4-04T10:30:04Z
2021-04-04T08:31:59Z,42.805,6.029,13.2981,4.60013,2470.18,2021-4-04T10:33:07Z
2021-04-04T08:35:02Z,42.805,6.029,13.2980,4.60006,2470.194,2021-4-04T10:36:10Z
2021-04-04T08:38:05Z,42.805,6.029,13.2981,4.59997,2470.203,2021-4-04T10:39:13Z
2021-04-04T08:41:09Z,42.805,6.029,13.2982,4.59998,2470.194,2021-4-04T10:42:16Z
2021-04-04T08:44:12Z,42.805,6.029,13.2986,4.60003,2470.24,2021-4-04T10:45:19Z
2021-04-04T08:47:15Z,42.805,6.029,13.2981,4.59998,2470.203,2021-4-04T10:48:22Z
2021-04-04T08:50:18Z,42.805,6.029,13.2983,4.60001,2470.203,2021-4-04T10:51:26Z
2021-04-04T08:53:21Z,42.805,6.029,13.2982,4.60001,2470.227,2021-4-04T10:54:29Z
2021-04-04T08:56:24Z,42.805,6.029,13.2985,4.60001,2470.203,2021-4-04T10:57:32Z
2021-04-04T08:59:27Z,42.805,6.029,13.2979,4.60000,2470.25,2021-4-04T11:00:35Z
2021-04-04T09:02:30Z,42.805,6.029,13.2981,4.60000,2470.194,2021-4-04T11:03:38Z
2021-04-04T09:05:34Z,42.805,6.029,13.2981,4.60003,2470.227,2021-4-04T11:06:41Z
2021-04-04T09:08:37Z,42.805,6.029,13.2980,4.60003,2470.264,2021-4-04T11:09:44Z
2021-04-04T09:11:40Z,42.805,6.029,13.2980,4.60005,2470.24,2021-4-04T11:12:47Z
2021-04-04T09:14:43Z,42.805,6.029,13.2982,4.59997,2470.24,2021-4-04T11:15:51Z
2021-04-04T09:17:46Z,42.805,6.029,13.2979,4.60002,2470.25,2021-4-04T11:18:54Z
2021-04-04T09:20:49Z,42.805,6.029,13.2983,4.59997,2470.227,2021-4-04T11:21:57Z
2021-04-04T09:23:52Z,42.805,6.029,13.2981,4.59996,2470.24,2021-4-04T11:25:00Z
2021-04-04T09:26:55Z,42.805,6.029,13.2982,4.59998,2470.25,2021-4-04T11:28:03Z
2021-04-04T09:29:58Z,42.805,6.029,13.2982,4.59995,2470.273,2021-4-04T11:31:06Z
2021-04-04T09:33:02Z,42.805,6.029,13.2985,4.59993,2470.25,2021-4-04T11:34:09Z
2021-04-04T09:36:05Z,42.805,6.029,13.2983,4.59996,2470.297,2021-4-04T11:37:12Z
2021-04-04T09:39:08Z,42.805,6.029,13.2980,4.59997,2470.25,2021-4-04T11:40:16Z
2021-04-04T09:42:11Z,42.805,6.029,13.2979,4.59994,2470.25,2021-4-04T11:43:19Z
2021-04-04T09:45:14Z,42.805,6.029,13.2980,4.59996,2470.287,2021-4-04T11:46:22Z
2021-04-04T09:48:17Z,42.805,6.029,13.2981,4.60007,2470.273,2021-4-04T11:49:25Z
2021-04-04T09:51:20Z,42.805,6.029,13.2982,4.59998,2470.25,2021-4-04T11:52:28Z
2021-04-04T09:54:23Z,42.805,6.029,13.2983,4.60006,2470.273,2021-4-04T11:55:31Z
2021-04-04T09:57:27Z,42.805,6.029,13.2980,4.60002,2470.297,2021-4-04T11:58:34Z
2021-04-04T10:00:30Z,42.805,6.029,13.2982,4.60004,2470.273,2021-4-04T12:01:37Z
2021-04-04T10:03:33Z,42.805,6.029,13.2983,4.60000,2470.273,2021-4-04T12:04:41Z
2021-04-04T10:06:36Z,42.805,6.029,13.2984,4.60009,2470.287,2021-4-04T12:07:44Z
2021-04-04T10:09:39Z,42.805,6.029,13.2980,4.60001,2470.273,2021-4-04T12:10:47Z
2021-04-04T10:12:42Z,42.805,6.029,13.2982,4.59999,2470.273,2021-4-04T12:13:50Z
2021-04-04T10:15:45Z,42.805,6.029,13.2981,4.60004,2470.297,2021-4-04T12:16:53Z
2021-04-04T10:18:48Z,42.805,6.029,13.2976,4.59995,2470.25,2021-4-04T12:19:56Z
2021-04-04T10:21:52Z,42.805,6.029,13.2977,4.60004,2470.297,2021-4-04T12:22:59Z
2021-04-04T10:24:55Z,42.805,6.029,13.2981,4.59996,2470.287,2021-4-04T12:26:02Z
2021-04-04T10:27:58Z,42.805,6.029,13.2981,4.60001,2470.297,2021-4-04T12:29:06Z
2021-04-04T10:31:01Z,42.805,6.029,13.2982,4.59996,2470.287,2021-4-04T12:32:09Z
2021-04-04T10:34:04Z,42.805,6.029,13.2981,4.59997,2470.25,2021-4-04T12:35:12Z
2021-04-04T10:37:07Z,42.805,6.029,13.2980,4.59996,2470.297,2021-4-04T12:38:15Z
2021-04-04T10:40:10Z,42.805,6.029,13.2981,4.59993,2470.297,2021-4-04T12:41:18Z
2021-04-04T10:43:13Z,42.805,6.029,13.2980,4.60001,2470.273,2021-4-04T12:44:21Z
2021-04-04T10:46:17Z,42.805,6.029,13.2983,4.59998,2470.273,2021-4-04T12:47:24Z
2021-04-04T10:49:20Z,42.805,6.029,13.2983,4.59999,2470.273,2021-4-04T12:50:27Z
2021-04-04T10:52:23Z,42.805,6.029,13.2979,4.60002,2470.273,2021-4-04T12:53:31Z
2021-04-04T10:55:26Z,42.805,6.029,13.2985,4.60003,2470.273,2021-4-04T12:56:34Z
2021-04-04T10:58:29Z,42.805,6.029,13.2982,4.60004,2470.287,2021-4-04T12:59:37Z
2021-04-04T11:01:32Z,42.805,6.029,13.2985,4.59997,2470.273,2021-4-04T13:02:40Z
2021-04-04T11:04:35Z,42.805,6.029,13.2985,4.59996,2470.287,2021-4-04T13:05:43Z
2021-04-04T11:07:38Z,42.805,6.029,13.2981,4.60003,2470.287,2021-4-04T13:08:46Z
2021-04-04T11:10:42Z,42.805,6.029,13.2984,4.60010,2470.273,2021-4-04T13:11:49Z
2021-04-04T11:13:45Z,42.805,6.029,13.2979,4.59992,2470.31,2021-4-04T13:14:52Z
2021-04-04T11:16:48Z,42.805,6.029,13.2982,4.60003,2470.273,2021-4-04T13:17:55Z
2021-04-04T11:19:51Z,42.805,6.029,13.2981,4.60004,2470.25,2021-4-04T13:20:59Z
2021-04-04T11:22:54Z,42.805,6.029,13.2984,4.60004,2470.297,2021-4-04T13:24:02Z
2021-04-04T11:25:57Z,42.805,6.029,13.2983,4.60008,2470.273,2021-4-04T13:27:05Z
2021-04-04T11:29:00Z,42.805,6.029,13.2982,4.60003,2470.273,2021-4-04T13:30:08Z
2021-04-04T11:32:03Z,42.805,6.029,13.2983,4.59998,2470.273,2021-4-04T13:33:11Z
2021-04-04T11:35:07Z,42.805,6.029,13.2983,4.59999,2470.25,2021-4-04T13:36:14Z
2021-04-04T11:38:10Z,42.805,6.029,13.2982,4.59999,2470.273,2021-4-04T13:39:17Z
2021-04-04T11:41:13Z,42.805,6.029,13.2984,4.60001,2470.264,2021-4-04T13:42:20Z
2021-04-04T11:44:16Z,42.805,6.029,13.2979,4.60001,2470.273,2021-4-04T13:45:24Z
2021-04-04T11:47:19Z,42.805,6.029,13.2983,4.59996,2470.287,2021-4-04T13:48:27Z
2021-04-04T11:50:22Z,42.805,6.029,13.2982,4.59996,2470.273,2021-4-04T13:51:30Z
2021-04-04T11:53:25Z,42.805,6.029,13.2978,4.59997,2470.273,2021-4-04T13:54:33Z
2021-04-04T11:56:28Z,42.805,6.029,13.2982,4.60003,2470.287,2021-4-04T13:57:36Z
2021-04-04T11:59:31Z,42.805,6.029,13.2979,4.59997,2470.273,2021-4-04T14:00:39Z
2021-04-04T12:02:35Z,42.805,6.029,13.2983,4.59999,2470.24,2021-4-04T14:03:42Z
2021-04-04T12:05:38Z,42.805,6.029,13.2982,4.60001,2470.25,2021-4-04T14:06:45Z
2021-04-04T12:08:41Z,42.805,6.029,13.2978,4.60003,2470.227,2021-4-04T14:09:49Z
2021-04-04T12:11:44Z,42.805,6.029,13.2982,4.60002,2470.297,2021-4-04T14:12:52Z
2021-04-04T12:14:47Z,42.805,6.029,13.2983,4.60001,2470.25,2021-4-04T14:15:55Z
2021-04-04T12:17:50Z,42.805,6.029,13.2986,4.60004,2470.264,2021-4-04T14:18:58Z
2021-04-04T12:20:53Z,42.805,6.029,13.2981,4.60005,2470.25,2021-4-04T14:22:01Z
2021-04-04T12:23:56Z,42.805,6.029,13.2983,4.60005,2470.264,2021-4-04T14:25:04Z
2021-04-04T12:27:00Z,42.805,6.029,13.2982,4.60006,2470.264,2021-4-04T14:28:07Z
2021-04-04T12:30:03Z,42.805,6.029,13.2979,4.60003,2470.273,2021-4-04T14:31:10Z
2021-04-04T12:33:06Z,42.805,6.029,13.2986,4.60006,2470.24,2021-4-04T14:34:14Z
2021-04-04T12:36:09Z,42.805,6.029,13.2983,4.59999,2470.264,2021-4-04T14:37:17Z
2021-04-04T12:39:12Z,42.805,6.029,13.2979,4.60001,2470.264,2021-4-04T14:40:20Z
2021-04-04T12:42:15Z,42.805,6.029,13.2980,4.59999,2470.264,2021-4-04T14:43:23Z
2021-04-04T12:45:18Z,42.805,6.029,13.2982,4.59999,2470.32,2021-4-04T14:46:26Z
2021-04-04T12:48:21Z,42.805,6.029,13.2985,4.59999,2470.25,2021-4-04T14:49:29Z
2021-04-04T12:51:25Z,42.805,6.029,13.2981,4.59998,2470.264,2021-4-04T14:52:32Z
2021-04-04T12:54:28Z,42.805,6.029,13.2985,4.60002,2470.287,2021-4-04T14:55:35Z
2021-04-04T12:57:31Z,42.805,6.029,13.2982,4.59996,2470.25,2021-4-04T14:58:39Z
2021-04-04T13:00:34Z,42.805,6.029,13.2983,4.60003,2470.287,2021-4-04T15:01:42Z
2021-04-04T13:03:37Z,42.805,6.029,13.2982,4.60001,2470.227,2021-4-04T15:04:45Z
2021-04-04T13:06:40Z,42.805,6.029,13.2982,4.60000,2470.25,2021-4-04T15:07:48Z
2021-04-04T13:09:43Z,42.805,6.029,13.2978,4.60003,2470.227,2021-4-04T15:10:51Z
2021-04-04T13:12:46Z,42.805,6.029,13.2980,4.59998,2470.287,2021-4-04T15:13:54Z
2021-04-04T13:15:50Z,42.805,6.029,13.2982,4.59996,2470.264,2021-4-04T15:16:57Z
2021-04-04T13:18:53Z,42.805,6.029,13.2981,4.59997,2470.264,2021-4-04T15:20:00Z
2021-04-04T13:21:56Z,42.805,6.029,13.2982,4.59999,2470.25,2021-4-04T15:23:03Z
2021-04-04T13:24:59Z,42.805,6.029,13.2979,4.59998,2470.273,2021-4-04T15:26:07Z
2021-04-04T13:28:02Z,42.805,6.029,13.2980,4.59999,2470.227,2021-4-04T15:29:10Z
2021-04-04T13:31:05Z,42.805,6.029,13.2976,4.60003,2470.25,2021-4-04T15:32:13Z
2021-04-04T13:34:08Z,42.805,6.029,13.2982,4.60001,2470.227,2021-4-04T15:35:16Z
2021-04-04T13:37:11Z,42.805,6.029,13.2983,4.60006,2470.273,2021-4-04T15:38:19Z
2021-04-04T13:40:15Z,42.805,6.029,13.2983,4.60003,2470.25,2021-4-04T15:41:22Z
2021-04-04T13:43:18Z,42.805,6.029,13.2982,4.59999,2470.24,2021-4-04T15:44:25Z
2021-04-04T13:46:21Z,42.805,6.029,13.2982,4.60005,2470.203,2021-4-04T15:47:28Z
2021-04-04T13:49:24Z,42.805,6.029,13.2981,4.60001,2470.25,2021-4-04T15:50:32Z
2021-04-04T13:52:27Z,42.805,6.029,13.2983,4.60004,2470.24,2021-4-04T15:53:35Z
2021-04-04T13:55:30Z,42.805,6.029,13.2982,4.60005,2470.217,2021-4-04T15:56:38Z
2021-04-04T13:58:33Z,42.805,6.029,13.2981,4.59998,2470.25,2021-4-04T15:59:41Z
2021-04-04T14:01:36Z,42.805,6.029,13.2980,4.60003,2470.227,2021-4-04T16:02:44Z
2021-04-04T14:04:39Z,42.805,6.029,13.2979,4.60006,2470.203,2021-4-04T16:05:47Z
2021-04-04T14:07:43Z,42.805,6.029,13.2981,4.60004,2470.203,2021-4-04T16:08:50Z
2021-04-04T14:10:46Z,42.805,6.029,13.2984,4.60006,2470.227,2021-4-04T16:11:53Z
2021-04-04T14:13:49Z,42.805,6.029,13.2983,4.60001,2470.25,2021-4-04T16:14:57Z
2021-04-04T14:16:52Z,42.805,6.029,13.2984,4.60001,2470.25,2021-4-04T16:18:00Z
2021-04-04T14:19:55Z,42.805,6.029,13.2982,4.59996,2470.25,2021-4-04T16:21:03Z
2021-04-04T14:22:58Z,42.805,6.029,13.2983,4.60001,2470.227,2021-4-04T16:24:06Z
2021-04-04T14:26:01Z,42.805,6.029,13.2979,4.60003,2470.227,2021-4-04T16:27:09Z
2021-04-04T14:29:04Z,42.805,6.029,13.2982,4.60009,2470.25,2021-4-04T16:30:12Z
2021-04-04T14:32:08Z,42.805,6.029,13.2981,4.60004,2470.24,2021-4-04T16:33:15Z
2021-04-04T14:35:11Z,42.805,6.029,13.2979,4.60014,2470.24,2021-4-04T16:36:18Z
2021-04-04T14:38:14Z,42.805,6.029,13.2983,4.60014,2470.203,2021-4-04T16:39:22Z
2021-04-04T14:41:17Z,42.805,6.029,13.2982,4.60003,2470.203,2021-4-04T16:42:25Z
2021-04-04T14:44:20Z,42.805,6.029,13.2979,4.60001,2470.227,2021-4-04T16:45:28Z
2021-04-04T14:47:23Z,42.805,6.029,13.2982,4.59998,2470.203,2021-4-04T16:48:31Z
2021-04-04T14:50:26Z,42.805,6.029,13.2986,4.60003,2470.24,2021-4-04T16:51:34Z
2021-04-04T14:53:29Z,42.805,6.029,13.2983,4.60014,2470.264,2021-4-04T16:54:37Z
2021-04-04T14:56:33Z,42.805,6.029,13.2979,4.60009,2470.203,2021-4-04T16:57:40Z
2021-04-04T14:59:36Z,42.805,6.029,13.2987,4.60009,2470.227,2021-4-04T17:00:43Z
2021-04-04T15:02:39Z,42.805,6.029,13.2982,4.60003,2470.24,2021-4-04T17:03:47Z
2021-04-04T15:05:42Z,42.805,6.029,13.2983,4.60011,2470.227,2021-4-04T17:06:50Z
2021-04-04T15:08:45Z,42.805,6.029,13.2984,4.60003,2470.203,2021-4-04T17:09:53Z
2021-04-04T15:11:48Z,42.805,6.029,13.2986,4.60014,2470.217,2021-4-04T17:12:56Z